SCP
0 0 0 0 0 0 0 0 0 0 -0 0 0 0 0 0 0 0 0 0 -0 -0 -0 -0 -0 -0 -0 -0 -0 -0 -0 -0 -0 -0 -0 -0 -0 -0 -0 -0 0 0 0
-0 -0 0 0 0 -0 -0 -0 -0 -0 -0 -0 -0 0 0 0 0 0 0 0 -0 -0 -0 -0 -0 -0 -0 -0 -0 -0 -0 -0 -0 -0 -0 -0 0 0 -0 -0 0 0 0
-0 -0 -0 0 0 0 -0 -0 -0 -0 -0 -0 -0 0 0 0 0 0 0 0 0 0 0 -0 -0 -0 -0 -0 -0 -0 -0 -0 -0 -0 0 0 0 0 0 0 0 0 0
-0 -0 -0 -0 -0 -0 -0 -0 -0 -0 -0 -0 -0 -0 -0 0 0 0 0 0 0 0 0 0 0 -0 -0 -0 -0 -0 -0 -0 -0 -0 -0 -0 0 0 0 0 0 0 0
-0 -0 -0 -0 -0 -0 -0 -0 -0 -0 -0 -0 -0 -0 -0 -0 0 0 0 0 0 0 0 0 0 -0 0 -0 -0 -0 -0 -0 -0 -0 -0 -0 -0 -0 0 0 0 0 0
-0 -0 -0 -0 -0 -0 -0 -0 -0 -0 -0 -0 -0 -0 -0 -0 0 0 -0 0 0 0 0 0 -0 -0 0 -0 -0 -0 -0 -0 0 -0 -0 -0 -0 -0 -0 0 0 0 0
-0 -0 -0 -0 -0 -0 -0 -0 -0 -0 -0 -0 -0 -0 -0 -0 0 0 0 -0 0 0 0 0 -0 -0 0 0 -0 -0 0 -0 -0 0 0 -0 0 0 0 0 0 -0 0
-0 -0 -0 -0 -0 -0 -0 -0 -0 -0 -0 -0 -0 -0 -0 -0 0 0 -0 0 0 0 0 -0 -0 0 -0 -0 0 0 0 -0 -0 -0 -0 0 0 -0 -0 0 0 0 -0
-0 -0 -0 -0 -0 -0 -0 -0 -0 -0 -0 -0 -0 -0 -0 -0 0 -0 0 0 0 0 0 -0 -0 -0 -0 -0 0 0 0 0 0 0 0 0 0 0 -0 0 0 0 -0
-0 -0 -0 -0 -0 -0 -0 -0 -0 -0 -0 -0 -0 -0 -0 -0 -0 -0 0 0 0 0 0 0 -0 -0 -0 0 0 -0 0 0 -0 -0 -0 0 0 -0 0 0 0 0 -0
-0 -0 -0 -0 -0 0 -0 -0 -0 -0 -0 -0 -0 -0 -0 -0 -0 -0 0 0 0 0 0 0 -0 -0 -0 0 0 -0 -0 -0 -0 -0 -0 -0 -0 -0 -0 -0 -0 -0 -0
-0 -0 -0 -0 -0 -0 0 -0 0 0 -0 -0 -0 -0 -0 -0 0 0 0 0 0 0 0 -0 -0 0 -0 -0 -0 -0 0 -0 0 -0 0 -0 -0 -0 0 -0 -0 -0 -0
-0 -0 -0 -0 -0 0 0 0 -0 0 0 0 -0 -0 0 0 -0 -0 0 -0 -0 0 -0 -0 -0 0 -0 0 -0 0 -0 -0 -0 -0 -0 -0 -0 0 -0 -0 -0 -0 -0
-0 -0 -0 -0 -0 -0 0 0 0 0 0 0 -0 -0 0 0 0 0 0 0 0 0 -0 -0 -0 -0 -0 0 -0 -0 0 -0 -0 -0 -0 -0 -0 -0 -0 -0 -0 -0 -0
-0 -0 -0 -0 -0 -0 0 0 0 0 0 0 0 -0 -0 0 0 -0 -0 0 0 0 -0 -0 -0 -0 -0 -0 -0 -0 0 -0 -0 -0 0 -0 -0 -0 -0 -0 0 -0 -0
-0 -0 -0 -0 -0 -0 0 0 0 0 0 0 0 -0 0 0 -0 0 0 0 0 -0 -0 0 -0 -0 -0 -0 -0 -0 -0 -0 -0 -0 -0 -0 -0 -0 -0 -0 -0 -0 -0
-0 -0 -0 -0 -0 -0 -0 0 0 0 0 0 0 -0 0 0 0 0 -0 0 -0 0 0 0 -0 -0 -0 -0 -0 -0 -0 -0 -0 -0 -0 -0 -0 -0 -0 -0 -0 -0 -0
-0 -0 0 -0 -0 -0 -0 -0 0 0 0 0 0 -0 0 0 0 0 0 0 0 0 0 0 0 0 0 0 0 0 -0 -0 -0 -0 0 0 -0 -0 -0 -0 -0 -0 -0
-0 -0 -0 -0 -0 -0 0 0 -0 0 0 0 0 0 0 0 0 0 -0 -0 0 0 0 0 0 0 0 0 0 0 0 0 0 0 -0 0 -0 0 -0 -0 -0 -0 -0
0 -0 -0 0 -0 0 0 0 0 0 0 0 0 0 0 0 0 0 0 0 0 0 0 0 0 0 0 0 0 0 0 0 0 0 -0 -0 -0 0 0 -0 -0 -0 -0
0 -0 -0 0 0 0 0 0 0 0 0 0 0 0 0 0 0 0 0 0 0 0 0 0 0 -0 -0 0 0 0 0 -0 0 0 0 -0 -0 0 -0 -0 0 -0 -0
0 -0 -0 -0 -0 0 0 0 0 0 0 0 0 0 0 0 -0 0 0 0 0 0 0 0 0 -0 0 -0 0 0 0 0 -0 0 0 0 0 0 0 0 -0 -0 -0
0 -0 -0 -0 -0 -0 0 0 0 0 0 0 0 0 0 -0 0 0 0 0 0 0 0 0 0 -0 0 0 0 0 0 0 0 0 0 0 0 0 0 0 -0 -0 -0
-0 -0 -0 -0 -0 -0 -0 0 0 0 0 1 1 0 0 -0 -0 -0 0 0 0 0 0 0 0 0 0 0 0 0 0 0 0 -0 -0 0 -0 0 0 0 -0 -0 -0
-0 -0 -0 -0 -0 -0 -0 0 0 0 0 0 0 0 0 -0 -0 0 0 0 0 0 0 0 0 0 -0 0 0 -0 -0 0 0 0 0 0 0 0 -0 0 0 0 -0
-0 -0 -0 -0 -0 -0 -0 -0 -0 0 0 0 0 0 0 0 0 0 0 0 0 0 0 0 0 -0 -0 -0 0 0 0 0 0 0 0 -0 0 0 0 0 0 0 0
Wind_Speed_500mb
33 37 39 37 36 37 38 37 36 36 32 32 32 33 37 41 41 41 41 38 34 30 30 26 21 18 18 17 13 11 9 10 10 12 14 15 17 20 22 20 26 12 14
43 40 40 38 36 34 34 35 36 33 32 32 30 31 33 35 39 34 34 32 30 28 24 21 17 12 11 11 10 8 6 3 2 6 8 12 16 17 14 9 16 9 10
42 41 39 40 38 35 33 34 33 31 31 29 30 27 26 27 30 34 31 28 25 21 20 17 16 12 10 12 10 4 7 2 2 6 10 13 17 14 5 14 6 7 9
42 37 42 42 38 34 34 32 33 33 30 27 30 28 33 31 29 33 31 24 19 16 14 14 13 11 9 7 3 3 5 1 2 7 11 15 20 17 15 23 31 9 8
43 37 39 42 35 27 29 29 27 28 29 32 30 29 28 28 28 32 29 20 17 13 10 11 12 9 10 9 6 5 1 1 5 10 8 12 13 18 21 31 47 15 9
41 36 39 38 33 25 24 26 27 26 27 28 28 27 33 22 29 26 27 22 15 12 10 12 9 9 15 12 9 3 4 6 11 6 5 8 10 11 15 29 49 24 16
39 34 37 34 30 24 22 22 22 23 23 23 25 25 24 17 32 33 28 24 19 17 16 13 14 13 13 11 8 6 7 5 9 7 7 10 15 13 13 32 35 32 21
38 33 32 32 29 25 20 19 20 19 18 18 17 17 16 13 18 31 30 23 20 18 16 16 13 12 10 8 9 10 6 4 4 6 11 10 19 15 15 19 30 33 29
35 33 31 28 30 27 23 19 19 16 15 14 16 16 14 12 23 27 25 23 20 19 17 16 15 14 12 12 10 10 7 4 5 9 6 9 11 12 15 18 24 24 27
33 31 30 30 28 24 23 21 19 16 16 14 13 9 12 16 20 18 16 17 18 16 16 15 18 15 13 11 10 9 6 2 7 5 10 16 10 10 10 11 16 21 23
32 30 28 25 27 25 21 21 20 18 15 13 12 12 14 21 13 8 14 18 14 16 16 17 19 16 13 10 8 6 7 6 7 7 7 15 12 15 13 14 17 20 18
35 32 31 28 23 23 22 23 21 20 14 13 16 18 21 19 16 18 15 15 15 16 17 18 19 15 10 11 5 4 7 10 9 7 11 9 14 16 15 17 16 18 14
34 34 32 32 30 27 23 21 15 17 15 14 19 20 20 19 13 12 10 8 8 11 7 10 12 9 12 13 12 10 11 7 6 2 13 10 14 16 16 13 15 15 15
35 34 33 31 31 29 25 21 20 18 17 15 18 18 21 19 19 17 13 16 16 13 20 21 16 17 17 15 13 12 11 11 8 5 13 11 15 17 16 13 17 18 16
33 31 31 31 32 30 32 25 23 22 20 18 19 22 22 17 20 14 11 10 12 14 19 15 15 16 15 13 14 12 10 12 9 5 7 9 14 17 19 17 14 15 14
31 32 29 32 31 29 29 32 27 24 22 22 21 20 24 22 19 13 9 9 18 13 8 14 14 13 10 16 14 14 11 14 9 9 9 9 13 16 17 16 15 14 13
31 30 31 30 30 32 33 29 30 27 24 22 22 23 24 26 21 14 9 13 16 12 12 12 8 9 13 14 18 17 11 12 9 7 10 11 12 15 17 13 13 14 15
32 31 30 30 32 33 34 33 32 31 29 24 21 19 26 27 22 16 7 11 15 13 11 15 9 8 13 15 14 15 15 13 10 8 10 14 13 10 14 15 15 15 15
34 32 30 29 30 31 29 32 36 35 33 25 25 21 24 27 20 15 12 15 13 11 11 11 10 14 15 17 15 14 15 14 10 6 8 14 15 16 11 16 13 14 14
34 34 31 28 29 33 27 28 35 36 34 36 34 28 25 23 19 18 13 16 15 14 11 13 14 12 15 18 16 15 15 14 13 10 10 8 11 11 12 14 9 8 10
35 35 34 33 31 27 25 26 31 30 37 40 35 27 24 26 24 18 18 18 16 16 13 12 10 15 16 18 16 16 11 12 14 13 14 12 12 11 15 14 14 14 10
40 38 37 35 33 29 24 27 28 32 33 36 34 26 27 28 27 17 15 14 16 11 10 12 13 15 13 17 13 10 11 14 14 13 14 14 12 12 12 15 16 17 18
45 42 40 38 36 32 28 24 26 28 36 35 35 28 28 31 27 25 15 15 17 10 8 11 12 14 12 15 16 7 8 8 18 14 15 14 16 13 13 16 16 16 12
47 43 42 41 38 33 29 24 26 26 35 34 29 28 27 32 29 28 21 17 18 15 11 9 11 13 11 11 14 14 10 5 5 7 14 15 16 14 16 14 14 17 17
46 45 42 39 37 33 27 23 27 33 29 28 29 31 31 30 28 31 22 15 18 17 13 10 12 12 3 7 7 16 10 3 4 4 6 14 15 17 16 16 17 17 19
46 43 41 40 40 34 29 23 29 30 31 31 34 32 31 25 28 30 23 22 19 24 16 10 11 10 9 11 10 12 6 2 3 6 8 8 10 8 15 19 23 23 21
Wind_Direction_500mb
144 144 136 136 135 132 134 135 138 137 145 148 149 143 141 146 148 140 142 145 147 152 150 146 147 141 138 133 117 94 80 83 92 94 95 104 111 102 92 98 89 117 103
148 145 140 139 137 138 141 142 149 149 148 149 148 152 149 149 160 154 144 140 143 145 151 158 156 157 145 137 131 94 58 39 128 138 130 124 117 102 99 82 120 133 122
148 150 141 144 143 143 142 142 144 150 157 151 146 146 157 162 159 161 159 154 149 147 152 156 161 167 158 144 135 65 20 347 188 170 155 140 149 139 92 278 263 131 126
150 147 150 149 145 143 141 142 147 151 154 158 164 164 172 168 172 167 163 162 162 162 172 180 177 183 182 181 155 351 334 269 149 163 139 168 170 167 204 228 230 208 137
150 154 160 150 149 145 141 141 148 151 159 164 173 175 167 178 178 188 180 172 164 167 183 195 209 221 224 240 284 320 252 140 121 114 167 188 219 250 217 218 216 214 190
149 156 160 154 154 149 145 143 150 156 163 166 169 175 173 184 179 185 187 189 188 198 209 212 212 233 229 254 279 275 159 130 106 157 145 193 159 199 171 193 195 214 210
152 163 161 162 163 159 148 147 153 155 160 165 170 182 187 192 197 190 196 200 216 220 229 232 231 231 233 244 247 187 170 168 158 180 194 204 191 160 180 193 199 217 218
154 159 169 167 169 165 160 165 163 161 167 175 186 206 213 219 183 197 204 208 213 219 224 227 224 218 208 182 169 163 175 179 244 227 216 210 218 212 205 195 211 220 231
161 164 168 170 171 169 171 174 165 167 182 195 207 215 221 255 172 183 202 207 209 217 219 213 205 193 171 164 167 179 175 150 172 191 163 150 178 188 178 185 198 210 208
167 170 174 177 169 167 172 178 173 177 193 205 214 206 202 160 169 163 171 182 182 188 190 195 195 187 189 184 189 192 192 192 175 149 155 215 200 173 176 183 191 186 189
175 173 179 176 173 171 177 182 184 190 194 202 209 180 165 164 160 219 187 208 184 195 194 195 195 198 194 189 187 202 192 190 196 170 164 221 198 180 179 179 175 184 190
181 180 185 182 186 177 179 195 179 186 190 191 180 180 155 174 178 171 199 195 197 195 193 194 198 205 184 205 269 225 126 188 163 174 219 205 196 179 168 182 182 190 190
185 185 191 185 191 184 185 199 176 188 186 195 185 179 183 178 194 159 200 195 191 194 183 199 208 192 215 199 217 200 183 183 193 160 240 212 190 184 184 191 181 191 194
190 189 191 195 195 187 191 188 194 189 191 193 194 189 189 190 183 192 189 186 173 187 192 197 192 199 202 216 207 215 206 201 212 213 266 212 196 190 193 206 196 197 199
192 194 197 197 199 195 188 194 195 194 191 196 196 201 192 191 199 194 207 184 188 194 196 206 201 214 200 207 202 189 192 204 202 194 235 230 195 188 184 192 205 195 195
197 199 202 202 207 200 200 194 196 200 203 194 197 209 196 197 204 198 221 226 195 187 229 193 224 206 187 196 195 200 212 205 203 203 198 244 200 202 205 214 204 199 196
201 203 208 211 211 211 211 206 200 204 202 198 207 203 200 203 207 204 240 242 193 203 213 202 207 213 195 201 207 221 195 184 190 188 180 198 213 207 205 208 203 196 202
201 206 207 210 214 216 213 207 203 202 195 195 199 206 208 202 213 221 240 208 192 202 207 208 190 191 184 186 188 182 190 182 179 172 169 174 189 210 210 200 200 197 199
199 203 202 207 211 217 214 212 212 210 199 199 195 197 204 204 212 225 221 206 196 206 200 203 200 180 190 174 180 179 181 177 174 173 186 174 190 181 189 244 203 196 193
199 200 198 203 204 212 210 218 216 214 215 203 194 192 205 203 208 202 210 194 188 179 186 184 187 174 168 173 166 176 186 184 179 191 193 166 190 184 186 196 197 184 191
202 200 200 198 203 207 209 217 221 215 218 213 205 197 196 200 198 202 197 197 191 164 196 189 196 180 174 181 184 170 186 193 189 194 187 184 205 182 199 198 183 192 226
204 203 202 201 208 212 214 222 226 221 217 212 201 198 195 197 195 191 182 187 179 173 189 182 182 175 190 193 198 184 185 194 200 201 197 200 199 202 205 201 200 201 200
204 203 204 209 215 216 208 221 233 221 213 208 191 193 201 194 194 190 191 210 197 189 221 197 189 180 197 206 199 204 177 228 184 201 210 205 210 206 210 216 214 218 221
206 205 205 211 216 217 225 222 221 204 204 191 183 189 194 192 198 208 215 207 207 208 200 190 175 182 183 209 225 214 187 175 168 169 205 212 210 208 218 222 229 225 232
203 204 204 203 207 207 222 219 212 201 190 178 185 191 178 196 199 197 203 209 191 189 180 157 166 155 145 184 197 187 203 220 168 201 248 192 223 228 226 227 230 229 238
200 200 200 201 215 213 226 224 197 197 187 180 179 183 184 189 193 200 201 189 182 174 177 161 147 142 110 99 114 159 205 237 242 224 264 246 261 220 240 242 239 241 242
Wind_Speed_850mb
33 37 39 37 36 37 38 37 36 36 32 32 32 33 37 41 41 41 41 38 34 30 30 26 21 18 18 17 13 11 9 10 10 12 14 15 17 20 22 20 26 12 14
43 40 40 38 36 34 34 35 36 33 32 32 30 31 33 35 39 34 34 32 30 28 24 21 17 12 11 11 10 8 6 3 2 6 8 12 16 17 14 9 16 9 10
42 41 39 40 38 35 33 34 33 31 31 29 30 27 26 27 30 34 31 28 25 21 20 17 16 12 10 12 10 4 7 2 2 6 10 13 17 14 5 14 6 7 9
42 37 42 42 38 34 34 32 33 33 30 27 30 28 33 31 29 33 31 24 19 16 14 14 13 11 9 7 3 3 5 1 2 7 11 15 20 17 15 23 31 9 8
43 37 39 42 35 27 29 29 27 28 29 32 30 29 28 28 28 32 29 20 17 13 10 11 12 9 10 9 6 5 1 1 5 10 8 12 13 18 21 31 47 15 9
41 36 39 38 33 25 24 26 27 26 27 28 28 27 33 22 29 26 27 22 15 12 10 12 9 9 15 12 9 3 4 6 11 6 5 8 10 11 15 29 49 24 16
39 34 37 34 30 24 22 22 22 23 23 23 25 25 24 17 32 33 28 24 19 17 16 13 14 13 13 11 8 6 7 5 9 7 7 10 15 13 13 32 35 32 21
38 33 32 32 29 25 20 19 20 19 18 18 17 17 16 13 18 31 30 23 20 18 16 16 13 12 10 8 9 10 6 4 4 6 11 10 19 15 15 19 30 33 29
35 33 31 28 30 27 23 19 19 16 15 14 16 16 14 12 23 27 25 23 20 19 17 16 15 14 12 12 10 10 7 4 5 9 6 9 11 12 15 18 24 24 27
33 31 30 30 28 24 23 21 19 16 16 14 13 9 12 16 20 18 16 17 18 16 16 15 18 15 13 11 10 9 6 2 7 5 10 16 10 10 10 11 16 21 23
32 30 28 25 27 25 21 21 20 18 15 13 12 12 14 21 13 8 14 18 14 16 16 17 19 16 13 10 8 6 7 6 7 7 7 15 12 15 13 14 17 20 18
35 32 31 28 23 23 22 23 21 20 14 13 16 18 21 19 16 18 15 15 15 16 17 18 19 15 10 11 5 4 7 10 9 7 11 9 14 16 15 17 16 18 14
34 34 32 32 30 27 23 21 15 17 15 14 19 20 20 19 13 12 10 8 8 11 7 10 12 9 12 13 12 10 11 7 6 2 13 10 14 16 16 13 15 15 15
35 34 33 31 31 29 25 21 20 18 17 15 18 18 21 19 19 17 13 16 16 13 20 21 16 17 17 15 13 12 11 11 8 5 13 11 15 17 16 13 17 18 16
33 31 31 31 32 30 32 25 23 22 20 18 19 22 22 17 20 14 11 10 12 14 19 15 15 16 15 13 14 12 10 12 9 5 7 9 14 17 19 17 14 15 14
31 32 29 32 31 29 29 32 27 24 22 22 21 20 24 22 19 13 9 9 18 13 8 14 14 13 10 16 14 14 11 14 9 9 9 9 13 16 17 16 15 14 13
31 30 31 30 30 32 33 29 30 27 24 22 22 23 24 26 21 14 9 13 16 12 12 12 8 9 13 14 18 17 11 12 9 7 10 11 12 15 17 13 13 14 15
32 31 30 30 32 33 34 33 32 31 29 24 21 19 26 27 22 16 7 11 15 13 11 15 9 8 13 15 14 15 15 13 10 8 10 14 13 10 14 15 15 15 15
34 32 30 29 30 31 29 32 36 35 33 25 25 21 24 27 20 15 12 15 13 11 11 11 10 14 15 17 15 14 15 14 10 6 8 14 15 16 11 16 13 14 14
34 34 31 28 29 33 27 28 35 36 34 36 34 28 25 23 19 18 13 16 15 14 11 13 14 12 15 18 16 15 15 14 13 10 10 8 11 11 12 14 9 8 10
35 35 34 33 31 27 25 26 31 30 37 40 35 27 24 26 24 18 18 18 16 16 13 12 10 15 16 18 16 16 11 12 14 13 14 12 12 11 15 14 14 14 10
40 38 37 35 33 29 24 27 28 32 33 36 34 26 27 28 27 17 15 14 16 11 10 12 13 15 13 17 13 10 11 14 14 13 14 14 12 12 12 15 16 17 18
45 42 40 38 36 32 28 24 26 28 36 35 35 28 28 31 27 25 15 15 17 10 8 11 12 14 12 15 16 7 8 8 18 14 15 14 16 13 13 16 16 16 12
47 43 42 41 38 33 29 24 26 26 35 34 29 28 27 32 29 28 21 17 18 15 11 9 11 13 11 11 14 14 10 5 5 7 14 15 16 14 16 14 14 17 17
46 45 42 39 37 33 27 23 27 33 29 28 29 31 31 30 28 31 22 15 18 17 13 10 12 12 3 7 7 16 10 3 4 4 6 14 15 17 16 16 17 17 19
46 43 41 40 40 34 29 23 29 30 31 31 34 32 31 25 28 30 23 22 19 24 16 10 11 10 9 11 10 12 6 2 3 6 8 8 10 8 15 19 23 23 21
Wind_Direction_850mb
144 144 136 136 135 132 134 135 138 137 145 148 149 143 141 146 148 140 142 145 147 152 150 146 147 141 138 133 117 94 80 83 92 94 95 104 111 102 92 98 89 117 103
148 145 140 139 137 138 141 142 149 149 148 149 148 152 149 149 160 154 144 140 143 145 151 158 156 157 145 137 131 94 58 39 128 138 130 124 117 102 99 82 120 133 122
148 150 141 144 143 143 142 142 144 150 157 151 146 146 157 162 159 161 159 154 149 147 152 156 161 167 158 144 135 65 20 347 188 170 155 140 149 139 92 278 263 131 126
150 147 150 149 145 143 141 142 147 151 154 158 164 164 172 168 172 167 163 162 162 162 172 180 177 183 182 181 155 351 334 269 149 163 139 168 170 167 204 228 230 208 137
150 154 160 150 149 145 141 141 148 151 159 164 173 175 167 178 178 188 180 172 164 167 183 195 209 221 224 240 284 320 252 140 121 114 167 188 219 250 217 218 216 214 190
149 156 160 154 154 149 145 143 150 156 163 166 169 175 173 184 179 185 187 189 188 198 209 212 212 233 229 254 279 275 159 130 106 157 145 193 159 199 171 193 195 214 210
152 163 161 162 163 159 148 147 153 155 160 165 170 182 187 192 197 190 196 200 216 220 229 232 231 231 233 244 247 187 170 168 158 180 194 204 191 160 180 193 199 217 218
154 159 169 167 169 165 160 165 163 161 167 175 186 206 213 219 183 197 204 208 213 219 224 227 224 218 208 182 169 163 175 179 244 227 216 210 218 212 205 195 211 220 231
161 164 168 170 171 169 171 174 165 167 182 195 207 215 221 255 172 183 202 207 209 217 219 213 205 193 171 164 167 179 175 150 172 191 163 150 178 188 178 185 198 210 208
167 170 174 177 169 167 172 178 173 177 193 205 214 206 202 160 169 163 171 182 182 188 190 195 195 187 189 184 189 192 192 192 175 149 155 215 200 173 176 183 191 186 189
175 173 179 176 173 171 177 182 184 190 194 202 209 180 165 164 160 219 187 208 184 195 194 195 195 198 194 189 187 202 192 190 196 170 164 221 198 180 179 179 175 184 190
181 180 185 182 186 177 179 195 179 186 190 191 180 180 155 174 178 171 199 195 197 195 193 194 198 205 184 205 269 225 126 188 163 174 219 205 196 179 168 182 182 190 190
185 185 191 185 191 184 185 199 176 188 186 195 185 179 183 178 194 159 200 195 191 194 183 199 208 192 215 199 217 200 183 183 193 160 240 212 190 184 184 191 181 191 194
190 189 191 195 195 187 191 188 194 189 191 193 194 189 189 190 183 192 189 186 173 187 192 197 192 199 202 216 207 215 206 201 212 213 266 212 196 190 193 206 196 197 199
192 194 197 197 199 195 188 194 195 194 191 196 196 201 192 191 199 194 207 184 188 194 196 206 201 214 200 207 202 189 192 204 202 194 235 230 195 188 184 192 205 195 195
197 199 202 202 207 200 200 194 196 200 203 194 197 209 196 197 204 198 221 226 195 187 229 193 224 206 187 196 195 200 212 205 203 203 198 244 200 202 205 214 204 199 196
201 203 208 211 211 211 211 206 200 204 202 198 207 203 200 203 207 204 240 242 193 203 213 202 207 213 195 201 207 221 195 184 190 188 180 198 213 207 205 208 203 196 202
201 206 207 210 214 216 213 207 203 202 195 195 199 206 208 202 213 221 240 208 192 202 207 208 190 191 184 186 188 182 190 182 179 172 169 174 189 210 210 200 200 197 199
199 203 202 207 211 217 214 212 212 210 199 199 195 197 204 204 212 225 221 206 196 206 200 203 200 180 190 174 180 179 181 177 174 173 186 174 190 181 189 244 203 196 193
199 200 198 203 204 212 210 218 216 214 215 203 194 192 205 203 208 202 210 194 188 179 186 184 187 174 168 173 166 176 186 184 179 191 193 166 190 184 186 196 197 184 191
202 200 200 198 203 207 209 217 221 215 218 213 205 197 196 200 198 202 197 197 191 164 196 189 196 180 174 181 184 170 186 193 189 194 187 184 205 182 199 198 183 192 226
204 203 202 201 208 212 214 222 226 221 217 212 201 198 195 197 195 191 182 187 179 173 189 182 182 175 190 193 198 184 185 194 200 201 197 200 199 202 205 201 200 201 200
204 203 204 209 215 216 208 221 233 221 213 208 191 193 201 194 194 190 191 210 197 189 221 197 189 180 197 206 199 204 177 228 184 201 210 205 210 206 210 216 214 218 221
206 205 205 211 216 217 225 222 221 204 204 191 183 189 194 192 198 208 215 207 207 208 200 190 175 182 183 209 225 214 187 175 168 169 205 212 210 208 218 222 229 225 232
203 204 204 203 207 207 222 219 212 201 190 178 185 191 178 196 199 197 203 209 191 189 180 157 166 155 145 184 197 187 203 220 168 201 248 192 223 228 226 227 230 229 238
200 200 200 201 215 213 226 224 197 197 187 180 179 183 184 189 193 200 201 189 182 174 177 161 147 142 110 99 114 159 205 237 242 224 264 246 261 220 240 242 239 241 242